Location: Dal�� Lhota
(48.7500°N, 14.0167°E)
Time: 02:11:36
(UTC+00:00)

Nadezhda 4 Rocket - Pass Details

Date: 24 September 2020
Orbit: 949 x 992 km, 82.9° (Epoch: 29 October)

Event Time Altitude Azimuth Distance (km) Brightness Sun altitude
Rises 17:43:59 0° 353° (N) 3,637 7.2 -8.6°
Reaches altitude 10° 17:46:32 10° 357° (N) 2,686 6.5 -9.0°
Maximum altitude 17:52:35 58° 76° (ENE) 1,103 4.0 -10.0°
Drops below altitude 10° 17:58:35 10° 156° (SSE) 2,676 6.0 -10.9°
Sets 18:01:08 0° 160° (SSE) 3,621 6.7 -11.4°
